When you browse on this site, cookies collect data to enhance your experience and personalize the content and advertising you see.
Visit our Privacy Policy to learn more. By continuing to use the site, you agree to this use of cookies and data.

Hourly Weather Ciudad Bolívar

Today, 12 July, Sunday

Time Temperature Precipitation Wind Pressure Humidity
00:00 +26°C° 2.4 mm 2 mps 753 mmHg 93%
01:00 +26°C° 2.4 mm 2 mps 752 mmHg 91%
02:00 +27°C° 2.4 mm 2 mps 752 mmHg 90%
03:00 +26°C° 1.4 mm 2 mps 752 mmHg 90%
04:00 +26°C° 1.4 mm 2 mps 752 mmHg 90%
05:00 +26°C° 1.4 mm 2 mps 752 mmHg 90%
06:00 +26°C° 0.5 mm 2 mps 753 mmHg 88%
07:00 +27°C° 0.5 mm 1 mps 753 mmHg 86%
08:00 +27°C° 0.5 mm 1 mps 754 mmHg 83%
09:00 +28°C° 0.2 mm 2 mps 754 mmHg 78%
10:00 +30°C° 0.2 mm 2 mps 754 mmHg 73%
11:00 +31°C° 0.2 mm 2 mps 754 mmHg 68%
12:00 +32°C° 0.1 mm 2 mps 753 mmHg 64%
13:00 +32°C° 0.1 mm 1 mps 752 mmHg 61%
14:00 +33°C° 0.1 mm 1 mps 752 mmHg 57%
15:00 +34°C° 0.8 mm 2 mps 751 mmHg 60%
16:00 +32°C° 0.8 mm 2 mps 751 mmHg 63%
17:00 +32°C° 0.8 mm 2 mps 750 mmHg 66%
18:00 +31°C° 0.5 mm 3 mps 751 mmHg 71%
19:00 +29°C° 0.5 mm 3 mps 752 mmHg 77%
20:00 +28°C° 0.5 mm 3 mps 752 mmHg 82%
21:00 +28°C° 0.3 mm 3 mps 753 mmHg 84%
22:00 +28°C° 0.3 mm 3 mps 753 mmHg 85%
23:00 +27°C° 0.3 mm 3 mps 754 mmHg 87%

Tomorrow, 13 July, Monday

Time Temperature Precipitation Wind Pressure Humidity
00:00 +27°C° 0.3 mm 3 mps 753 mmHg 88%
01:00 +27°C° 0.3 mm 3 mps 753 mmHg 89%
02:00 +27°C° 0.3 mm 2 mps 753 mmHg 89%
03:00 +26°C° 0.2 mm 2 mps 753 mmHg 90%
04:00 +26°C° 0.2 mm 2 mps 752 mmHg 91%
05:00 +26°C° 0.2 mm 2 mps 752 mmHg 92%
06:00 +26°C° 0.7 mm 3 mps 753 mmHg 89%
07:00 +27°C° 0.7 mm 3 mps 753 mmHg 87%
08:00 +28°C° 0.7 mm 3 mps 754 mmHg 84%
09:00 +29°C° 0.4 mm 3 mps 754 mmHg 79%
10:00 +30°C° 0.4 mm 4 mps 754 mmHg 74%
11:00 +32°C° 0.4 mm 4 mps 754 mmHg 68%
12:00 +33°C° 0.1 mm 3 mps 753 mmHg 65%
13:00 +34°C° 0.1 mm 3 mps 753 mmHg 61%
14:00 +34°C° 0.1 mm 3 mps 752 mmHg 58%
15:00 +34°C° 0.4 mm 3 mps 751 mmHg 59%
16:00 +34°C° 0.4 mm 2 mps 751 mmHg 60%
17:00 +34°C° 0.4 mm 2 mps 751 mmHg 61%
18:00 +31°C° 1.3 mm 2 mps 751 mmHg 68%
19:00 +30°C° 1.3 mm 2 mps 752 mmHg 74%
20:00 +28°C° 1.3 mm 2 mps 753 mmHg 81%
21:00 +28°C° 0.6 mm 3 mps 753 mmHg 84%
22:00 +28°C° 0.6 mm 3 mps 754 mmHg 87%
23:00 +27°C° 0.6 mm 3 mps 754 mmHg 90%

Day after tomorrow, 14 July, Tuesday

Time Temperature Precipitation Wind Pressure Humidity
00:00 +27°C° 0.2 mm 3 mps 754 mmHg 90%
01:00 +27°C° 0.2 mm 3 mps 753 mmHg 91%
02:00 +26°C° 0.2 mm 3 mps 753 mmHg 92%
03:00 +26°C° 0 mm 3 mps 753 mmHg 92%
04:00 +26°C° 0 mm 2 mps 753 mmHg 93%
05:00 +26°C° 0 mm 2 mps 752 mmHg 94%
06:00 +27°C° 0 mm 2 mps 753 mmHg 91%
07:00 +27°C° 0 mm 3 mps 754 mmHg 88%
08:00 +28°C° 0 mm 3 mps 754 mmHg 85%
09:00 +29°C° 0.3 mm 3 mps 754 mmHg 78%
10:00 +31°C° 0.3 mm 3 mps 754 mmHg 71%
11:00 +33°C° 0.3 mm 3 mps 754 mmHg 63%
12:00 +34°C° 0.2 mm 3 mps 753 mmHg 60%
13:00 +34°C° 0.2 mm 3 mps 753 mmHg 57%
14:00 +35°C° 0.2 mm 3 mps 752 mmHg 54%
15:00 +34°C° 0.5 mm 3 mps 752 mmHg 58%
16:00 +34°C° 0.5 mm 3 mps 751 mmHg 62%
17:00 +33°C° 0.5 mm 3 mps 751 mmHg 65%
18:00 +31°C° 0.1 mm 3 mps 752 mmHg 70%
19:00 +30°C° 0.1 mm 3 mps 752 mmHg 75%
20:00 +29°C° 0.1 mm 3 mps 753 mmHg 79%
21:00 +28°C° 0 mm 3 mps 753 mmHg 81%
22:00 +28°C° 0 mm 3 mps 753 mmHg 83%
23:00 +27°C° 0 mm 4 mps 754 mmHg 85%

15 July, Wednesday

Time Temperature Precipitation Wind Pressure Humidity
00:00 +27°C° 0 mm 3 mps 753 mmHg 86%
01:00 +27°C° 0 mm 3 mps 753 mmHg 87%
02:00 +26°C° 0 mm 3 mps 752 mmHg 89%
03:00 +26°C° 0 mm 3 mps 752 mmHg 90%
04:00 +26°C° 0 mm 2 mps 752 mmHg 91%
05:00 +25°C° 0 mm 2 mps 752 mmHg 92%
06:00 +26°C° 0 mm 2 mps 753 mmHg 89%
07:00 +27°C° 0 mm 2 mps 753 mmHg 86%
08:00 +27°C° 0 mm 2 mps 754 mmHg 83%
09:00 +29°C° 0 mm 2 mps 754 mmHg 75%
10:00 +30°C° 0 mm 3 mps 754 mmHg 68%
11:00 +33°C° 0 mm 3 mps 754 mmHg 60%
12:00 +34°C° 0 mm 3 mps 753 mmHg 57%
13:00 +34°C° 0 mm 3 mps 752 mmHg 53%
14:00 +35°C° 0 mm 2 mps 751 mmHg 50%
15:00 +35°C° 0 mm 2 mps 751 mmHg 51%
16:00 +35°C° 0 mm 2 mps 750 mmHg 52%
17:00 +35°C° 0 mm 2 mps 750 mmHg 54%
18:00 +32°C° 0.1 mm 2 mps 751 mmHg 59%
19:00 +31°C° 0.1 mm 3 mps 751 mmHg 64%
20:00 +30°C° 0.1 mm 3 mps 752 mmHg 69%
21:00 +29°C° 0.1 mm 3 mps 752 mmHg 72%
22:00 +28°C° 0.1 mm 3 mps 752 mmHg 75%
23:00 +28°C° 0.1 mm 3 mps 753 mmHg 78%

16 July, Thursday

Time Temperature Precipitation Wind Pressure Humidity
00:00 +27°C° 0.4 mm 3 mps 753 mmHg 82%
01:00 +27°C° 0.4 mm 3 mps 752 mmHg 85%
02:00 +26°C° 0.4 mm 3 mps 752 mmHg 89%
03:00 +26°C° 0.1 mm 3 mps 752 mmHg 89%
04:00 +26°C° 0.1 mm 2 mps 752 mmHg 90%
05:00 +25°C° 0.1 mm 2 mps 752 mmHg 91%
06:00 +26°C° 0 mm 2 mps 753 mmHg 88%
07:00 +27°C° 0 mm 3 mps 753 mmHg 85%
08:00 +28°C° 0 mm 3 mps 754 mmHg 81%
09:00 +29°C° 0.2 mm 3 mps 754 mmHg 74%
10:00 +31°C° 0.2 mm 3 mps 754 mmHg 67%
11:00 +33°C° 0.2 mm 3 mps 754 mmHg 59%
12:00 +34°C° 0.1 mm 3 mps 753 mmHg 55%
13:00 +35°C° 0.1 mm 3 mps 752 mmHg 52%
14:00 +36°C° 0.1 mm 3 mps 751 mmHg 48%
15:00 +35°C° 0 mm 3 mps 751 mmHg 49%
16:00 +35°C° 0 mm 3 mps 751 mmHg 49%
17:00 +35°C° 0 mm 2 mps 750 mmHg 50%
18:00 +34°C° 0.8 mm 2 mps 751 mmHg 57%
19:00 +31°C° 0.8 mm 2 mps 751 mmHg 65%
20:00 +30°C° 0.8 mm 2 mps 752 mmHg 73%
21:00 +29°C° 1.4 mm 3 mps 752 mmHg 76%
22:00 +28°C° 1.4 mm 3 mps 753 mmHg 78%
23:00 +28°C° 1.4 mm 3 mps 753 mmHg 81%

17 July, Friday

Time Temperature Precipitation Wind Pressure Humidity
00:00 +27°C° 0.1 mm 3 mps 753 mmHg 83%
01:00 +27°C° 0.1 mm 3 mps 753 mmHg 85%
02:00 +26°C° 0.1 mm 2 mps 752 mmHg 86%
03:00 +26°C° 0 mm 2 mps 752 mmHg 87%
04:00 +26°C° 0 mm 2 mps 753 mmHg 88%
05:00 +26°C° 0 mm 2 mps 753 mmHg 90%
06:00 +26°C° 0 mm 2 mps 753 mmHg 87%
07:00 +27°C° 0 mm 2 mps 753 mmHg 84%
08:00 +28°C° 0 mm 3 mps 754 mmHg 81%
09:00 +29°C° 0 mm 3 mps 754 mmHg 74%
10:00 +31°C° 0 mm 3 mps 754 mmHg 67%
11:00 +33°C° 0 mm 3 mps 753 mmHg 61%
12:00 +34°C° 0 mm 3 mps 752 mmHg 57%
13:00 +35°C° 0 mm 3 mps 751 mmHg 53%
14:00 +36°C° 0 mm 3 mps 750 mmHg 50%
15:00 +35°C° 0 mm 2 mps 750 mmHg 50%
16:00 +35°C° 0 mm 2 mps 750 mmHg 51%
17:00 +35°C° 0 mm 2 mps 750 mmHg 51%
18:00 +34°C° 0.1 mm 3 mps 750 mmHg 57%
19:00 +31°C° 0.1 mm 3 mps 751 mmHg 63%
20:00 +30°C° 0.1 mm 4 mps 751 mmHg 68%
21:00 +29°C° 0.2 mm 4 mps 752 mmHg 72%
22:00 +29°C° 0.2 mm 3 mps 752 mmHg 77%
23:00 +28°C° 0.2 mm 3 mps 753 mmHg 81%
Show more